Location: Cardiff
(53.7833°N, 113.6000°W)
Time: 18:20:54
(UTC+00:00)

AO-85 - Visible Passes

Search period start: 19 April 2025 00:00
Search period end: 29 April 2025 00:00
Orbit: 488 x 722 km, 64.8° (Epoch: 18 April)

Date Brightness Start Highest point End Pass type
(mag) Time Alt. Az. Time Alt. Az. Time Alt. Az.
19 Apr ? 04:35:40 13° E 04:35:40 13° E 04:36:42 10° ENE visible
19 Apr ? 06:12:26 63° SSE 06:12:52 67° SE 06:17:45 10° NE visible
19 Apr ? 07:49:10 16° W 07:52:50 38° NNW 07:57:21 10° NE visible
19 Apr ? 09:29:45 10° WNW 09:33:37 22° N 09:37:20 10° NE visible
19 Apr ? 11:10:32 10° NW 11:14:37 27° NNE 11:18:28 10° ENE visible
20 Apr ? 04:46:43 23° ESE 04:46:43 23° ESE 04:50:24 10° ENE visible
20 Apr ? 06:23:26 33° SW 06:25:43 84° NW 06:30:38 10° NE visible
20 Apr ? 08:01:32 10° W 08:05:57 30° NNW 08:10:13 10° NE visible
20 Apr ? 09:43:06 10° NW 09:46:53 22° N 09:50:30 10° NE visible
20 Apr ? 11:23:29 10° NW 11:27:47 32° NNE 11:31:48 10° E visible
21 Apr ? 04:56:59 25° SSE 04:59:07 36° ESE 05:03:38 10° ENE visible
21 Apr ? 06:33:39 10° WSW 06:38:39 59° NW 06:43:28 10° NE visible
21 Apr ? 08:15:00 10° WNW 08:19:09 26° NNW 08:23:07 10° NE visible
21 Apr ? 09:56:19 10° NW 10:00:09 23° N 10:03:47 10° ENE visible
21 Apr ? 11:36:22 10° NW 11:40:53 42° NNE 11:45:03 10° ESE visible
22 Apr ? 03:31:25 10° SE 03:33:06 12° ESE 03:34:48 10° E visible
22 Apr ? 05:06:52 10° SSW 05:11:49 55° SE 05:16:38 10° NE visible
22 Apr ? 06:46:51 10° WSW 06:51:39 43° NNW 06:56:16 10° NE visible
22 Apr ? 08:28:26 10° WNW 08:32:21 23° N 08:36:07 10° NE visible
22 Apr ? 10:09:23 10° NW 10:13:23 25° NNE 10:17:08 10° ENE visible
23 Apr ? 03:42:03 10° SSE 03:45:33 19° ESE 03:49:00 10° ENE visible
23 Apr ? 05:19:31 10° SW 05:24:36 83° SE 05:29:31 10° NE visible
23 Apr ? 07:00:11 10° W 07:04:43 33° NNW 07:09:05 10° NE visible
23 Apr ? 08:41:48 10° NW 08:45:36 22° N 08:49:13 10° NE visible
23 Apr ? 10:22:21 10° NW 10:26:32 29° NNE 10:30:27 10° E visible
24 Apr ? 03:53:43 10° S 03:58:05 30° ESE 04:02:21 10° ENE visible
24 Apr ? 05:32:25 10° SW 05:37:27 68° NW 05:42:19 10° NE visible
24 Apr ? 07:13:35 10° WNW 07:17:51 27° NNW 07:21:56 10° NE visible
24 Apr ? 08:55:03 10° NW 08:58:49 22° N 09:02:25 10° ENE visible
24 Apr ? 10:35:13 10° NW 10:39:37 37° NNE 10:43:43 10° E visible
25 Apr ? 04:05:53 10° SSW 04:10:42 46° SE 04:15:24 10° NE visible
25 Apr ? 05:45:30 10° WSW 05:50:24 49° NW 05:55:06 10° NE visible
25 Apr ? 07:27:00 10° WNW 07:31:00 24° NNW 07:34:50 10° NE visible
25 Apr ? 09:08:09 10° NW 09:12:01 24° NNE 09:15:42 10° ENE visible
25 Apr ? 10:48:02 10° NW 10:52:37 50° NE 10:56:51 10° ESE visible
26 Apr ? 04:18:22 10° SSW 04:23:24 70° SE 04:28:17 10° NE visible
26 Apr ? 05:58:44 10° W 06:03:24 37° NNW 06:07:52 10° NE visible
26 Apr ? 07:40:22 10° WNW 07:44:12 22° N 07:47:51 10° NE visible
26 Apr ? 09:21:06 10° NW 09:25:10 27° NNE 09:29:00 10° ENE visible
26 Apr ? 11:00:51 10° NW 11:05:30 74° NE 11:09:48 10° SE visible
27 Apr ? 04:31:08 10° SW 04:36:12 80° NW 04:41:05 10° NE visible
27 Apr ? 06:12:05 10° W 06:16:27 30° NNW 06:20:39 10° NE visible
27 Apr ? 07:53:38 10° NW 07:57:23 22° N 08:00:59 10° NE visible
27 Apr ? 09:33:58 10° NW 09:38:16 33° NNE 09:42:16 10° E visible
27 Apr ? 11:13:41 10° NW 11:18:17 73° SW 11:22:30 10° SE visible
28 Apr ? 04:44:06 10° WSW 04:49:04 56° NW 04:53:50 10° NE visible
28 Apr ? 06:25:28 10° WNW 06:29:34 25° NNW 06:33:29 10° NE visible
28 Apr ? 08:06:46 10° NW 08:10:34 23° N 08:14:11 10° ENE visible
28 Apr ? 09:46:46 10° NW 09:51:16 43° NNE 09:55:26 10° ESE visible
